Tracking 18987 objects as of 25-Feb-2018
HD Live streaming from Space Station
objects crossing your sky now

NOAA 16 DEB

Track NOAA 16 DEB now!
10-day predictions


NORAD ID: 41152
Int'l Code: 2000-055CK
Perigee: 836.8 km
Apogee: 855.9 km
Inclination: 98.9 °
Period: 101.7 minutes
Semi major axis: 7217 km
RCS: Unknown
Launch date: September 21, 2000
Source: United States (US)
Launch site: AIR FORCE WESTERN TEST RANGE (AFWTR)

Note: This is SATELLITE DEBRIS
aabbcc
Your satellite tracking list
Your tracking list is empty




NASA's NSSDC Master Catalog

Two Line Element Set (TLE):
1 41152U 00055CK  18055.44415812  .00000526  00000-0  28949-3 0  9999
2 41152  98.8760 135.5295 0013232 273.7641  86.2019 14.15924180115440
Source of the keplerian elements: AFSPC